Time,TemperatureF,DewpointF,PressureIn,WindDirection,WindDirectionDegrees,WindSpeedMPH,WindSpeedGustMPH,Humidity,HourlyPrecipIn,Conditions,Clouds,dailyrainin,SoftwareType,DateUTC
2013-03-10 00:00:00,41.4,31.6,30.44,WSW,248,0.0,0.0,68,0.00,CLR,,0.00,WeatherDisplay:10.37,2013-03-10 05:00:00,
2013-03-10 00:05:00,41.4,31.6,30.44,WSW,248,0.0,0.0,68,0.00,CLR,,0.00,WeatherDisplay:10.37,2013-03-10 05:05:00,
2013-03-10 00:10:00,41.2,31.4,30.44,WSW,248,0.0,0.0,68,0.00,CLR,,0.00,WeatherDisplay:10.37,2013-03-10 05:10:00,
2013-03-10 00:15:00,41.2,31.8,30.44,WSW,248,0.0,0.5,69,0.00,CLR,,0.00,WeatherDisplay:10.37,2013-03-10 05:15:00,
2013-03-10 00:20:00,41.0,31.6,30.44,West,270,0.0,0.0,69,0.00,CLR,,0.00,WeatherDisplay:10.37,2013-03-10 05:20:00,
2013-03-10 00:25:00,41.0,31.6,30.44,West,270,0.0,0.0,69,0.00,CLR,,0.00,WeatherDisplay:10.37,2013-03-10 05:25:00,
2013-03-10 00:30:00,41.0,31.6,30.44,West,270,0.0,0.0,69,0.00,CLR,,0.00,WeatherDisplay:10.37,2013-03-10 05:30:00,
2013-03-10 00:35:00,40.8,31.8,30.45,West,270,0.0,0.0,70,0.00,CLR,,0.00,WeatherDisplay:10.37,2013-03-10 05:35:00,
2013-03-10 00:40:00,40.6,31.6,30.45,West,270,0.0,0.0,70,0.00,CLR,,0.00,WeatherDisplay:10.37,2013-03-10 05:40:00,
2013-03-10 00:45:00,40.6,31.6,30.45,West,270,0.0,0.0,70,0.00,CLR,,0.00,WeatherDisplay:10.37,2013-03-10 05:45:00,
2013-03-10 00:50:00,40.6,31.6,30.45,West,270,0.0,0.0,70,0.00,CLR,,0.00,WeatherDisplay:10.37,2013-03-10 05:50:00,
2013-03-10 00:55:00,40.5,31.4,30.46,NE,45,0.0,0.0,70,0.00,CLR,,0.00,WeatherDisplay:10.37,2013-03-10 05:55:00,
2013-03-10 01:00:00,40.3,31.3,30.46,NE,45,0.0,0.0,70,0.00,CLR,,0.00,WeatherDisplay:10.37,2013-03-10 06:00:00,
2013-03-10 01:05:00,40.3,31.3,30.46,NE,45,0.0,0.0,70,0.00,CLR,,0.00,WeatherDisplay:10.37,2013-03-10 06:05:00,
2013-03-10 01:10:00,40.1,31.1,30.46,NE,45,0.0,0.0,70,0.00,CLR,,0.00,WeatherDisplay:10.37,2013-03-10 06:10:00,
2013-03-10 01:15:00,39.9,31.3,30.46,NE,45,0.0,0.0,71,0.00,CLR,,0.00,WeatherDisplay:10.37,2013-03-10 06:15:00,
2013-03-10 01:20:00,39.9,31.3,30.45,NNE,22,1.1,0.0,71,0.00,CLR,,0.00,WeatherDisplay:10.37,2013-03-10 06:20:00,
2013-03-10 01:25:00,39.7,31.1,30.45,NNE,22,0.0,0.0,71,0.00,CLR,,0.00,WeatherDisplay:10.37,2013-03-10 06:25:00,
2013-03-10 01:30:00,39.6,30.9,30.45,NNE,22,0.0,0.0,71,0.00,CLR,,0.00,WeatherDisplay:10.37,2013-03-10 06:30:00,
2013-03-10 01:35:00,39.6,30.9,30.45,East,90,0.5,0.5,71,0.00,CLR,,0.00,WeatherDisplay:10.37,2013-03-10 06:35:00,
2013-03-10 01:40:00,39.6,30.9,30.45,East,90,0.0,0.0,71,0.00,CLR,,0.00,WeatherDisplay:10.37,2013-03-10 06:40:00,
2013-03-10 01:45:00,39.4,30.8,30.45,East,90,0.5,0.5,71,0.00,CLR,,0.00,WeatherDisplay:10.37,2013-03-10 06:45:00,
2013-03-10 01:50:00,39.2,30.6,30.44,East,90,0.0,0.0,71,0.00,CLR,,0.00,WeatherDisplay:10.37,2013-03-10 06:50:00,
2013-03-10 01:55:00,39.2,30.6,30.44,East,90,0.0,0.0,71,0.00,CLR,,0.00,WeatherDisplay:10.37,2013-03-10 06:55:00,
2013-03-10 03:00:00,39.0,30.4,30.44,East,90,0.0,0.0,71,0.00,CLR,,0.00,WeatherDisplay:10.37,2013-03-10 07:00:00,
2013-03-10 03:05:00,38.8,30.2,30.44,East,90,0.0,0.0,71,0.00,CLR,,0.00,WeatherDisplay:10.37,2013-03-10 07:05:00,
2013-03-10 03:10:00,38.7,30.1,30.44,East,90,0.0,0.0,71,0.00,CLR,,0.00,WeatherDisplay:10.37,2013-03-10 07:10:00,
2013-03-10 03:15:00,38.7,30.1,30.43,ENE,68,0.0,0.0,71,0.00,CLR,,0.00,WeatherDisplay:10.37,2013-03-10 07:15:00,
2013-03-10 03:20:00,38.5,29.9,30.43,ENE,68,0.0,0.0,71,0.00,CLR,,0.00,WeatherDisplay:10.37,2013-03-10 07:20:00,
2013-03-10 03:25:00,38.5,29.9,30.43,ENE,68,0.0,0.0,71,0.00,CLR,,0.00,WeatherDisplay:10.37,2013-03-10 07:25:00,
2013-03-10 03:30:00,38.5,29.9,30.43,ENE,68,0.0,0.0,71,0.00,CLR,,0.00,WeatherDisplay:10.37,2013-03-10 07:30:00,
2013-03-10 03:35:00,38.3,29.7,30.42,ENE,68,0.0,0.0,71,0.00,CLR,,0.00,WeatherDisplay:10.37,2013-03-10 07:35:00,
2013-03-10 03:40:00,38.1,29.5,30.42,ENE,68,0.0,0.0,71,0.00,CLR,,0.00,WeatherDisplay:10.37,2013-03-10 07:40:00,
2013-03-10 03:45:00,37.9,29.4,30.42,ENE,68,0.0,0.0,71,0.00,CLR,,0.00,WeatherDisplay:10.37,2013-03-10 07:45:00,
2013-03-10 03:50:00,37.8,29.2,30.42,ENE,68,0.0,0.0,71,0.00,CLR,,0.00,WeatherDisplay:10.37,2013-03-10 07:50:00,
2013-03-10 03:55:00,37.8,29.2,30.42,ENE,68,0.0,0.0,71,0.00,CLR,,0.00,WeatherDisplay:10.37,2013-03-10 07:55:00,
2013-03-10 04:00:00,37.8,29.2,30.42,ENE,68,0.0,0.0,71,0.00,CLR,,0.00,WeatherDisplay:10.37,2013-03-10 08:00:00,
2013-03-10 04:05:00,37.6,29.0,30.42,ENE,68,0.0,0.0,71,0.00,CLR,,0.00,WeatherDisplay:10.37,2013-03-10 08:05:00,
2013-03-10 04:10:00,37.6,29.0,30.42,ENE,68,0.0,0.0,71,0.00,CLR,,0.00,WeatherDisplay:10.37,2013-03-10 08:10:00,
2013-03-10 04:15:00,37.4,28.9,30.42,ENE,68,0.0,0.0,71,0.00,CLR,,0.00,WeatherDisplay:10.37,2013-03-10 08:15:00,
2013-03-10 04:20:00,37.4,28.9,30.41,ENE,68,0.0,0.0,71,0.00,CLR,,0.00,WeatherDisplay:10.37,2013-03-10 08:20:00,
2013-03-10 04:25:00,37.2,28.7,30.41,ENE,68,0.0,0.0,71,0.00,CLR,,0.00,WeatherDisplay:10.37,2013-03-10 08:25:00,
2013-03-10 04:30:00,37.2,28.7,30.41,ENE,68,0.0,0.0,71,0.00,CLR,,0.00,WeatherDisplay:10.37,2013-03-10 08:30:00,
2013-03-10 04:35:00,37.0,28.5,30.41,ENE,68,0.0,0.0,71,0.00,CLR,,0.00,WeatherDisplay:10.37,2013-03-10 08:35:00,
2013-03-10 04:40:00,37.0,28.5,30.41,ENE,68,0.0,0.0,71,0.00,CLR,,0.00,WeatherDisplay:10.37,2013-03-10 08:40:00,
2013-03-10 04:45:00,37.0,28.5,30.41,ENE,68,0.0,0.0,71,0.00,CLR,,0.00,WeatherDisplay:10.37,2013-03-10 08:45:00,
2013-03-10 04:50:00,36.9,28.3,30.40,ENE,68,0.0,0.0,71,0.00,CLR,,0.00,WeatherDisplay:10.37,2013-03-10 08:50:00,
2013-03-10 04:55:00,36.9,28.7,30.41,ENE,68,0.0,0.0,72,0.00,CLR,,0.00,WeatherDisplay:10.37,2013-03-10 08:55:00,
2013-03-10 05:00:00,36.7,28.2,30.41,ENE,68,0.0,0.0,71,0.00,CLR,,0.00,WeatherDisplay:10.37,2013-03-10 09:00:00,
2013-03-10 05:05:00,36.7,28.2,30.41,ENE,68,0.0,0.0,71,0.00,CLR,,0.00,WeatherDisplay:10.37,2013-03-10 09:05:00,
2013-03-10 05:10:00,36.5,28.3,30.41,NW,315,0.0,0.0,72,0.00,CLR,,0.00,WeatherDisplay:10.37,2013-03-10 09:10:00,
2013-03-10 05:15:00,36.3,28.2,30.41,NW,315,0.0,0.0,72,0.00,CLR,,0.00,WeatherDisplay:10.37,2013-03-10 09:15:00,
2013-03-10 05:20:00,36.3,28.2,30.41,NW,315,0.0,0.0,72,0.00,CLR,,0.00,WeatherDisplay:10.37,2013-03-10 09:20:00,
2013-03-10 05:25:00,36.3,28.2,30.42,NW,315,0.0,0.0,72,0.00,CLR,,0.00,WeatherDisplay:10.37,2013-03-10 09:25:00,
2013-03-10 05:30:00,36.1,28.0,30.42,NW,315,0.0,0.0,72,0.00,CLR,,0.00,WeatherDisplay:10.37,2013-03-10 09:30:00,
2013-03-10 05:35:00,36.1,28.0,30.42,NW,315,0.0,0.0,72,0.00,CLR,,0.00,WeatherDisplay:10.37,2013-03-10 09:35:00,
2013-03-10 05:40:00,36.0,27.8,30.42,NW,315,0.0,0.0,72,0.00,CLR,,0.00,WeatherDisplay:10.37,2013-03-10 09:40:00,
2013-03-10 05:45:00,36.0,27.8,30.42,NW,315,0.0,0.0,72,0.00,CLR,,0.00,WeatherDisplay:10.37,2013-03-10 09:45:00,
2013-03-10 05:50:00,35.8,27.6,30.42,NW,315,0.0,0.0,72,0.00,CLR,,0.00,WeatherDisplay:10.37,2013-03-10 09:50:00,
2013-03-10 05:55:00,35.6,27.5,30.42,NW,315,0.0,0.0,72,0.00,CLR,,0.00,WeatherDisplay:10.37,2013-03-10 09:55:00,
2013-03-10 06:00:00,35.6,27.8,30.42,NW,315,0.0,0.0,73,0.00,CLR,,0.00,WeatherDisplay:10.37,2013-03-10 10:00:00,
2013-03-10 06:06:00,35.6,27.8,30.42,NW,315,0.0,0.0,73,0.00,CLR,,0.00,WeatherDisplay:10.37,2013-03-10 10:06:00,
2013-03-10 06:11:00,35.4,27.6,30.43,NW,315,0.0,0.0,73,0.00,CLR,,0.00,WeatherDisplay:10.37,2013-03-10 10:11:00,
2013-03-10 06:16:00,35.4,27.6,30.43,NW,315,0.0,0.0,73,0.00,CLR,,0.00,WeatherDisplay:10.37,2013-03-10 10:16:00,
2013-03-10 06:21:00,35.2,27.4,30.43,NW,315,0.0,0.0,73,0.00,CLR,,0.00,WeatherDisplay:10.37,2013-03-10 10:21:00,
2013-03-10 06:26:00,35.2,27.4,30.43,NW,315,0.5,0.5,73,0.00,CLR,,0.00,WeatherDisplay:10.37,2013-03-10 10:26:00,
2013-03-10 06:31:00,35.1,27.3,30.43,West,270,0.7,0.7,73,0.00,CLR,,0.00,WeatherDisplay:10.37,2013-03-10 10:31:00,
2013-03-10 06:36:00,35.1,27.3,30.44,West,270,0.0,0.0,73,0.00,CLR,,0.00,WeatherDisplay:10.37,2013-03-10 10:36:00,
2013-03-10 06:41:00,35.1,27.3,30.44,West,270,0.0,0.0,73,0.00,CLR,,0.00,WeatherDisplay:10.37,2013-03-10 10:41:00,
2013-03-10 06:46:00,35.1,27.3,30.44,North,0,1.1,1.1,73,0.00,CLR,,0.00,WeatherDisplay:10.37,2013-03-10 10:46:00,
2013-03-10 06:51:00,35.1,27.3,30.44,North,0,0.0,0.0,73,0.00,CLR,,0.00,WeatherDisplay:10.37,2013-03-10 10:51:00,
2013-03-10 06:56:00,35.1,27.3,30.44,North,0,0.0,0.0,73,0.00,CLR,,0.00,WeatherDisplay:10.37,2013-03-10 10:56:00,
2013-03-10 07:01:00,34.9,27.1,30.44,NNW,338,0.0,0.0,73,0.00,CLR,,0.00,WeatherDisplay:10.37,2013-03-10 11:01:00,
2013-03-10 07:06:00,34.9,27.1,30.44,NW,315,0.0,0.0,73,0.00,CLR,,0.00,WeatherDisplay:10.37,2013-03-10 11:06:00,
2013-03-10 07:11:00,34.9,27.1,30.44,NW,315,0.0,0.0,73,0.00,CLR,,0.00,WeatherDisplay:10.37,2013-03-10 11:11:00,
2013-03-10 07:16:00,34.7,26.9,30.44,NW,315,0.0,0.0,73,0.00,CLR,,0.00,WeatherDisplay:10.37,2013-03-10 11:16:00,
2013-03-10 07:21:00,34.7,26.9,30.44,NW,315,1.1,1.1,73,0.00,CLR,,0.00,WeatherDisplay:10.37,2013-03-10 11:21:00,
2013-03-10 07:26:00,34.5,26.8,30.44,NW,315,0.0,0.0,73,0.00,CLR,,0.00,WeatherDisplay:10.37,2013-03-10 11:26:00,
2013-03-10 07:31:00,34.5,26.8,30.44,NW,315,0.0,0.0,73,0.00,CLR,,0.00,WeatherDisplay:10.37,2013-03-10 11:31:00,
2013-03-10 07:36:00,34.5,26.8,30.44,NW,315,0.0,0.0,73,0.00,CLR,,0.00,WeatherDisplay:10.37,2013-03-10 11:36:00,
2013-03-10 07:41:00,34.5,26.8,30.44,NW,315,0.0,0.0,73,0.00,CLR,,0.00,WeatherDisplay:10.37,2013-03-10 11:41:00,
2013-03-10 07:46:00,34.5,26.8,30.44,NW,315,0.0,0.0,73,0.00,CLR,,0.00,WeatherDisplay:10.37,2013-03-10 11:46:00,
2013-03-10 07:51:00,34.5,26.8,30.44,NW,315,0.0,0.0,73,0.00,CLR,,0.00,WeatherDisplay:10.37,2013-03-10 11:51:00,
2013-03-10 07:56:00,34.5,26.8,30.44,NW,315,0.0,0.0,73,0.00,CLR,,0.00,WeatherDisplay:10.37,2013-03-10 11:56:00,
2013-03-10 08:01:00,34.7,27.3,30.44,NW,315,0.0,0.0,74,0.00,CLR,,0.00,WeatherDisplay:10.37,2013-03-10 12:01:00,
2013-03-10 08:06:00,34.9,27.4,30.44,NW,315,0.0,0.0,74,0.00,CLR,,0.00,WeatherDisplay:10.37,2013-03-10 12:06:00,
2013-03-10 08:11:00,35.1,27.6,30.44,NW,315,0.0,0.0,74,0.00,CLR,,0.00,WeatherDisplay:10.37,2013-03-10 12:11:00,
2013-03-10 08:16:00,35.4,28.3,30.44,NW,315,0.0,0.0,75,0.00,CLR,,0.00,WeatherDisplay:10.37,2013-03-10 12:16:00,
2013-03-10 08:21:00,35.8,28.6,30.44,NW,315,0.0,0.0,75,0.00,CLR,,0.00,WeatherDisplay:10.37,2013-03-10 12:21:00,
2013-03-10 08:26:00,36.3,29.2,30.45,NW,315,0.0,0.0,75,0.00,CLR,,0.00,WeatherDisplay:10.37,2013-03-10 12:26:00,
2013-03-10 08:31:00,36.7,30.1,30.44,North,0,0.5,0.5,77,0.00,CLR,,0.00,WeatherDisplay:10.37,2013-03-10 12:31:00,
2013-03-10 08:36:00,37.0,30.2,30.44,NE,45,1.1,1.1,76,0.00,CLR,,0.00,WeatherDisplay:10.37,2013-03-10 12:36:00,
2013-03-10 08:41:00,37.6,31.0,30.44,ENE,68,1.1,1.1,77,0.00,CLR,,0.00,WeatherDisplay:10.37,2013-03-10 12:41:00,
2013-03-10 08:46:00,38.1,31.5,30.44,NE,45,1.1,1.1,77,0.00,CLR,,0.00,WeatherDisplay:10.37,2013-03-10 12:46:00,
2013-03-10 08:51:00,38.7,32.4,30.45,ENE,68,1.1,1.1,78,0.00,CLR,,0.00,WeatherDisplay:10.37,2013-03-10 12:51:00,
2013-03-10 08:56:00,39.2,32.9,30.45,NNE,22,1.1,1.6,78,0.00,CLR,,0.00,WeatherDisplay:10.37,2013-03-10 12:56:00,
2013-03-10 09:01:00,39.9,33.6,30.45,NE,45,1.1,1.4,78,0.00,CLR,,0.00,WeatherDisplay:10.37,2013-03-10 13:01:00,
2013-03-10 09:06:00,40.6,34.0,30.45,North,0,1.1,1.1,77,0.00,CLR,,0.00,WeatherDisplay:10.37,2013-03-10 13:06:00,
2013-03-10 09:11:00,41.4,34.7,30.45,NE,45,2.3,2.3,77,0.00,CLR,,0.00,WeatherDisplay:10.37,2013-03-10 13:11:00,
2013-03-10 09:16:00,42.1,35.4,30.45,NE,45,2.3,2.3,77,0.00,CLR,,0.00,WeatherDisplay:10.37,2013-03-10 13:16:00,
2013-03-10 09:21:00,42.8,36.1,30.45,NE,45,3.5,3.5,77,0.00,CLR,,0.00,WeatherDisplay:10.37,2013-03-10 13:21:00,
2013-03-10 09:26:00,43.7,36.6,30.45,NE,45,3.5,3.5,76,0.00,CLR,,0.00,WeatherDisplay:10.37,2013-03-10 13:26:00,
2013-03-10 09:31:00,44.4,36.6,30.45,East,90,3.5,3.5,74,0.00,CLR,,0.00,WeatherDisplay:10.37,2013-03-10 13:31:00,
2013-03-10 09:36:00,45.1,37.3,30.45,NNE,22,3.5,3.5,74,0.00,CLR,,0.00,WeatherDisplay:10.37,2013-03-10 13:36:00,
2013-03-10 09:41:00,46.0,37.5,30.45,NE,45,5.8,5.8,72,0.00,CLR,,0.00,WeatherDisplay:10.37,2013-03-10 13:41:00,
2013-03-10 09:46:00,47.1,36.3,30.45,ESE,112,5.8,5.8,66,0.00,CLR,,0.00,WeatherDisplay:10.37,2013-03-10 13:46:00,
2013-03-10 09:51:00,48.0,36.0,30.46,East,90,3.5,3.5,63,0.00,CLR,,0.00,WeatherDisplay:10.37,2013-03-10 13:51:00,
2013-03-10 09:56:00,49.1,35.8,30.46,ESE,112,9.2,9.2,60,0.00,CLR,,0.00,WeatherDisplay:10.37,2013-03-10 13:56:00,
2013-03-10 10:01:00,49.8,31.9,30.46,NE,45,10.5,10.5,50,0.00,CLR,,0.00,WeatherDisplay:10.37,2013-03-10 14:01:00,
2013-03-10 10:06:00,50.5,33.6,30.46,NNW,338,4.9,4.9,52,0.00,CLR,,0.00,WeatherDisplay:10.37,2013-03-10 14:06:00,
2013-03-10 10:11:00,51.1,31.5,30.46,NNE,22,9.2,9.2,47,0.00,CLR,,0.00,WeatherDisplay:10.37,2013-03-10 14:11:00,
2013-03-10 10:16:00,51.8,31.1,30.47,ENE,68,7.1,7.1,45,0.00,CLR,,0.00,WeatherDisplay:10.37,2013-03-10 14:16:00,
2013-03-10 10:21:00,52.2,29.7,30.47,SE,135,8.1,8.1,42,0.00,CLR,,0.00,WeatherDisplay:10.37,2013-03-10 14:21:00,
2013-03-10 10:26:00,52.7,31.9,30.46,NE,45,4.6,4.6,45,0.00,CLR,,0.00,WeatherDisplay:10.37,2013-03-10 14:26:00,
2013-03-10 10:31:00,53.2,33.0,30.47,NE,45,5.8,5.8,46,0.00,CLR,,0.00,WeatherDisplay:10.37,2013-03-10 14:31:00,
2013-03-10 10:36:00,53.6,29.2,30.47,NE,45,5.8,5.8,39,0.00,CLR,,0.00,WeatherDisplay:10.37,2013-03-10 14:36:00,
2013-03-10 10:41:00,54.1,29.7,30.47,NW,315,5.8,5.8,39,0.00,CLR,,0.00,WeatherDisplay:10.37,2013-03-10 14:41:00,
2013-03-10 10:46:00,54.5,28.1,30.47,NNW,338,6.9,6.9,36,0.00,CLR,,0.00,WeatherDisplay:10.37,2013-03-10 14:46:00,
2013-03-10 10:51:00,54.9,29.7,30.47,ENE,68,10.4,10.4,38,0.00,CLR,,0.00,WeatherDisplay:10.37,2013-03-10 14:51:00,
2013-03-10 10:56:00,55.0,30.5,30.47,ENE,68,7.4,7.4,39,0.00,CLR,,0.00,WeatherDisplay:10.37,2013-03-10 14:56:00,
2013-03-10 11:01:00,55.0,27.1,30.47,North,0,9.2,9.2,34,0.00,CLR,,0.00,WeatherDisplay:10.37,2013-03-10 15:01:00,
2013-03-10 11:06:00,55.2,26.6,30.47,ENE,68,6.9,6.9,33,0.00,CLR,,0.00,WeatherDisplay:10.37,2013-03-10 15:06:00,
2013-03-10 11:11:00,55.6,26.9,30.47,ENE,68,8.1,8.1,33,0.00,CLR,,0.00,WeatherDisplay:10.37,2013-03-10 15:11:00,
2013-03-10 11:16:00,55.8,27.1,30.47,ENE,68,4.6,4.6,33,0.00,CLR,,0.00,WeatherDisplay:10.37,2013-03-10 15:16:00,
2013-03-10 11:21:00,56.3,29.7,30.48,ESE,112,5.8,5.8,36,0.00,CLR,,0.00,WeatherDisplay:10.37,2013-03-10 15:21:00,
2013-03-10 11:26:00,56.7,28.6,30.48,ENE,68,6.9,6.9,34,0.00,CLR,,0.00,WeatherDisplay:10.37,2013-03-10 15:26:00,
2013-03-10 11:31:00,56.8,28.0,30.48,NE,45,5.8,5.8,33,0.00,CLR,,0.00,WeatherDisplay:10.37,2013-03-10 15:31:00,
2013-03-10 11:36:00,57.2,29.1,30.48,ENE,68,5.8,5.8,34,0.00,CLR,,0.00,WeatherDisplay:10.37,2013-03-10 15:36:00,
2013-03-10 11:41:00,57.2,28.3,30.48,ENE,68,8.1,8.1,33,0.00,CLR,,0.00,WeatherDisplay:10.37,2013-03-10 15:41:00,
2013-03-10 11:46:00,57.2,28.3,30.47,East,90,6.0,6.0,33,0.00,CLR,,0.00,WeatherDisplay:10.37,2013-03-10 15:46:00,
2013-03-10 11:51:00,57.2,26.8,30.47,North,0,6.9,6.9,31,0.00,CLR,,0.00,WeatherDisplay:10.37,2013-03-10 15:51:00,
2013-03-10 11:56:00,57.2,26.8,30.47,SW,225,6.9,6.9,31,0.00,CLR,,0.00,WeatherDisplay:10.37,2013-03-10 15:56:00,
2013-03-10 12:01:00,57.4,27.0,30.47,ENE,68,9.2,9.2,31,0.00,CLR,,0.00,WeatherDisplay:10.37,2013-03-10 16:01:00,
2013-03-10 12:06:00,57.9,25.8,30.46,ENE,68,4.6,7.1,29,0.00,CLR,,0.00,WeatherDisplay:10.37,2013-03-10 16:06:00,
2013-03-10 12:11:00,58.1,26.0,30.47,ENE,68,9.2,9.2,29,0.00,CLR,,0.00,WeatherDisplay:10.37,2013-03-10 16:11:00,
2013-03-10 12:16:00,57.9,25.8,30.46,ENE,68,9.2,9.2,29,0.00,CLR,,0.00,WeatherDisplay:10.37,2013-03-10 16:16:00,
2013-03-10 12:21:00,57.9,25.8,30.47,East,90,8.5,8.5,29,0.00,CLR,,0.00,WeatherDisplay:10.37,2013-03-10 16:21:00,
2013-03-10 12:26:00,57.9,26.6,30.46,ENE,68,6.9,6.9,30,0.00,CLR,,0.00,WeatherDisplay:10.37,2013-03-10 16:26:00,
2013-03-10 12:31:00,58.3,26.1,30.46,SSW,202,8.1,8.1,29,0.00,CLR,,0.00,WeatherDisplay:10.37,2013-03-10 16:31:00,
2013-03-10 12:36:00,58.6,22.9,30.46,SSE,158,4.6,4.6,25,0.00,CLR,,0.00,WeatherDisplay:10.37,2013-03-10 16:36:00,
2013-03-10 12:41:00,58.8,24.9,30.46,NE,45,10.4,10.4,27,0.00,CLR,,0.00,WeatherDisplay:10.37,2013-03-10 16:41:00,
2013-03-10 12:46:00,59.0,24.1,30.46,East,90,9.9,9.9,26,0.00,CLR,,0.00,WeatherDisplay:10.37,2013-03-10 16:46:00,
2013-03-10 12:51:00,59.0,25.0,30.46,NE,45,6.9,6.9,27,0.00,CLR,,0.00,WeatherDisplay:10.37,2013-03-10 16:51:00,
2013-03-10 12:56:00,59.0,23.2,30.46,ENE,68,8.1,8.1,25,0.00,CLR,,0.00,WeatherDisplay:10.37,2013-03-10 16:56:00,
2013-03-10 13:01:00,58.8,22.1,30.45,East,90,9.2,9.2,24,0.00,CLR,,0.00,WeatherDisplay:10.37,2013-03-10 17:01:00,
2013-03-10 13:06:00,58.6,24.7,30.45,North,0,8.1,8.1,27,0.00,CLR,,0.00,WeatherDisplay:10.37,2013-03-10 17:06:00,
2013-03-10 13:11:00,58.6,22.9,30.45,ENE,68,8.1,8.1,25,0.00,CLR,,0.00,WeatherDisplay:10.37,2013-03-10 17:11:00,
2013-03-10 13:16:00,59.0,23.2,30.45,ESE,112,8.1,8.1,25,0.00,CLR,,0.00,WeatherDisplay:10.37,2013-03-10 17:16:00,
2013-03-10 13:21:00,59.2,22.4,30.45,ENE,68,6.9,6.9,24,0.00,CLR,,0.00,WeatherDisplay:10.37,2013-03-10 17:21:00,
2013-03-10 13:26:00,59.4,19.4,30.45,NNE,22,6.9,6.9,21,0.00,CLR,,0.00,WeatherDisplay:10.37,2013-03-10 17:26:00,
2013-03-10 13:31:00,59.7,19.7,30.45,ENE,68,10.4,10.4,21,0.00,CLR,,0.00,WeatherDisplay:10.37,2013-03-10 17:31:00,
2013-03-10 13:36:00,59.9,20.9,30.44,NNE,22,6.9,6.9,22,0.00,CLR,,0.00,WeatherDisplay:10.37,2013-03-10 17:36:00,
2013-03-10 13:41:00,59.9,19.8,30.45,ENE,68,6.9,6.9,21,0.00,CLR,,0.00,WeatherDisplay:10.37,2013-03-10 17:41:00,
2013-03-10 13:46:00,60.1,21.1,30.45,NW,315,4.6,4.6,22,0.00,CLR,,0.00,WeatherDisplay:10.37,2013-03-10 17:46:00,
2013-03-10 13:51:00,60.3,20.1,30.44,NE,45,5.8,5.8,21,0.00,CLR,,0.00,WeatherDisplay:10.37,2013-03-10 17:51:00,
2013-03-10 13:56:00,60.8,20.6,30.44,NW,315,5.8,5.8,21,0.00,CLR,,0.00,WeatherDisplay:10.37,2013-03-10 17:56:00,
2013-03-10 14:01:00,61.2,20.9,30.44,ENE,68,4.6,4.6,21,0.00,CLR,,0.00,WeatherDisplay:10.37,2013-03-10 18:01:00,
2013-03-10 14:06:00,61.7,22.4,30.44,SSE,158,4.6,4.6,22,0.00,CLR,,0.00,WeatherDisplay:10.37,2013-03-10 18:06:00,
2013-03-10 14:11:00,61.9,23.6,30.44,WNW,292,3.5,3.5,23,0.00,CLR,,0.00,WeatherDisplay:10.37,2013-03-10 18:11:00,
2013-03-10 14:16:00,62.1,24.8,30.43,East,90,9.2,9.2,24,0.00,CLR,,0.00,WeatherDisplay:10.37,2013-03-10 18:16:00,
2013-03-10 14:21:00,61.9,24.7,30.43,ENE,68,8.1,8.1,24,0.00,CLR,,0.00,WeatherDisplay:10.37,2013-03-10 18:21:00,
2013-03-10 14:26:00,62.1,27.7,30.43,West,270,3.5,3.5,27,0.00,CLR,,0.00,WeatherDisplay:10.37,2013-03-10 18:26:00,
2013-03-10 14:31:00,62.2,28.7,30.43,WSW,248,5.8,5.8,28,0.00,CLR,,0.00,WeatherDisplay:10.37,2013-03-10 18:31:00,
2013-03-10 14:36:00,62.6,28.1,30.43,SSE,158,4.6,4.6,27,0.00,CLR,,0.00,WeatherDisplay:10.37,2013-03-10 18:36:00,
2013-03-10 14:41:00,62.8,28.3,30.43,NNE,22,6.2,6.2,27,0.00,CLR,,0.00,WeatherDisplay:10.37,2013-03-10 18:41:00,
2013-03-10 14:46:00,63.0,28.4,30.43,SSE,158,4.6,4.6,27,0.00,CLR,,0.00,WeatherDisplay:10.37,2013-03-10 18:46:00,
2013-03-10 14:52:00,63.0,28.4,30.42,ESE,112,4.6,4.6,27,0.00,CLR,,0.00,WeatherDisplay:10.37,2013-03-10 18:52:00,
2013-03-10 14:57:00,63.0,26.6,30.42,NW,315,8.1,8.1,25,0.00,CLR,,0.00,WeatherDisplay:10.37,2013-03-10 18:57:00,
2013-03-10 15:02:00,63.0,25.6,30.42,WSW,248,4.5,4.5,24,0.00,CLR,,0.00,WeatherDisplay:10.37,2013-03-10 19:02:00,
2013-03-10 15:07:00,63.0,25.6,30.42,ENE,68,9.2,9.2,24,0.00,CLR,,0.00,WeatherDisplay:10.37,2013-03-10 19:07:00,
2013-03-10 15:12:00,62.6,25.3,30.42,ESE,112,5.8,5.8,24,0.00,CLR,,0.00,WeatherDisplay:10.37,2013-03-10 19:12:00,
2013-03-10 15:17:00,63.0,23.5,30.42,NNW,338,8.1,8.1,22,0.00,CLR,,0.00,WeatherDisplay:10.37,2013-03-10 19:17:00,
2013-03-10 15:22:00,63.1,22.5,30.42,ENE,68,5.8,5.8,21,0.00,CLR,,0.00,WeatherDisplay:10.37,2013-03-10 19:22:00,
2013-03-10 15:27:00,63.1,22.5,30.42,East,90,4.7,4.7,21,0.00,CLR,,0.00,WeatherDisplay:10.37,2013-03-10 19:27:00,
2013-03-10 15:32:00,63.0,22.4,30.41,ENE,68,4.6,5.6,21,0.00,CLR,,0.00,WeatherDisplay:10.37,2013-03-10 19:32:00,
2013-03-10 15:37:00,62.6,22.1,30.41,ENE,68,5.9,5.9,21,0.00,CLR,,0.00,WeatherDisplay:10.37,2013-03-10 19:37:00,
2013-03-10 15:42:00,62.6,23.2,30.41,ENE,68,10.4,10.4,22,0.00,CLR,,0.00,WeatherDisplay:10.37,2013-03-10 19:42:00,
2013-03-10 15:47:00,62.2,23.9,30.41,ENE,68,10.0,10.0,23,0.00,CLR,,0.00,WeatherDisplay:10.37,2013-03-10 19:47:00,
2013-03-10 15:52:00,62.1,24.8,30.41,NE,45,8.1,8.1,24,0.00,CLR,,0.00,WeatherDisplay:10.37,2013-03-10 19:52:00,
2013-03-10 15:57:00,61.9,23.6,30.41,West,270,10.4,10.4,23,0.00,CLR,,0.00,WeatherDisplay:10.37,2013-03-10 19:57:00,
2013-03-10 16:02:00,62.1,28.5,30.41,SW,225,8.1,8.1,28,0.00,CLR,,0.00,WeatherDisplay:10.37,2013-03-10 20:02:00,
2013-03-10 16:07:00,62.2,27.8,30.41,SE,135,5.8,5.8,27,0.00,CLR,,0.00,WeatherDisplay:10.37,2013-03-10 20:07:00,
2013-03-10 16:12:00,62.6,29.0,30.42,ENE,68,6.9,6.9,28,0.00,CLR,,0.00,WeatherDisplay:10.37,2013-03-10 20:12:00,
2013-03-10 16:17:00,62.2,28.7,30.42,East,90,6.9,6.9,28,0.00,CLR,,0.00,WeatherDisplay:10.37,2013-03-10 20:17:00,
2013-03-10 16:22:00,62.6,30.7,30.42,South,180,3.5,3.5,30,0.00,CLR,,0.00,WeatherDisplay:10.37,2013-03-10 20:22:00,
2013-03-10 16:27:00,62.6,29.9,30.42,SSW,202,5.8,5.8,29,0.00,CLR,,0.00,WeatherDisplay:10.37,2013-03-10 20:27:00,
2013-03-10 16:32:00,62.6,29.9,30.42,ESE,112,6.9,6.9,29,0.00,CLR,,0.00,WeatherDisplay:10.37,2013-03-10 20:32:00,
2013-03-10 16:37:00,62.1,31.0,30.42,East,90,3.5,3.5,31,0.00,CLR,,0.00,WeatherDisplay:10.37,2013-03-10 20:37:00,
2013-03-10 16:42:00,62.1,31.0,30.41,WSW,248,5.8,5.8,31,0.00,CLR,,0.00,WeatherDisplay:10.37,2013-03-10 20:42:00,
2013-03-10 16:48:00,62.1,31.8,30.41,NE,45,4.6,4.6,32,0.00,CLR,,0.00,WeatherDisplay:10.37,2013-03-10 20:48:00,
2013-03-10 16:53:00,62.2,32.0,30.42,South,180,3.5,3.5,32,0.00,CLR,,0.00,WeatherDisplay:10.37,2013-03-10 20:53:00,
2013-03-10 16:58:00,62.2,32.0,30.42,ENE,68,4.6,4.6,32,0.00,CLR,,0.00,WeatherDisplay:10.37,2013-03-10 20:58:00,
2013-03-10 17:03:00,62.2,32.0,30.41,NE,45,5.8,5.8,32,0.00,CLR,,0.00,WeatherDisplay:10.37,2013-03-10 21:03:00,
2013-03-10 17:08:00,61.9,31.7,30.41,NE,45,6.9,6.9,32,0.00,CLR,,0.00,WeatherDisplay:10.37,2013-03-10 21:08:00,
2013-03-10 17:13:00,61.7,31.5,30.41,SSE,158,4.6,4.6,32,0.00,CLR,,0.00,WeatherDisplay:10.37,2013-03-10 21:13:00,
2013-03-10 17:18:00,61.7,32.3,30.41,NNE,22,5.8,5.8,33,0.00,CLR,,0.00,WeatherDisplay:10.37,2013-03-10 21:18:00,
2013-03-10 17:23:00,61.9,32.4,30.41,ESE,112,2.3,2.3,33,0.00,CLR,,0.00,WeatherDisplay:10.37,2013-03-10 21:23:00,
2013-03-10 17:28:00,61.9,32.4,30.41,East,90,5.8,5.8,33,0.00,CLR,,0.00,WeatherDisplay:10.37,2013-03-10 21:28:00,
2013-03-10 17:33:00,61.7,31.5,30.41,SSW,202,5.8,5.8,32,0.00,CLR,,0.00,WeatherDisplay:10.37,2013-03-10 21:33:00,
2013-03-10 17:38:00,61.5,31.4,30.41,ENE,68,5.8,5.8,32,0.00,CLR,,0.00,WeatherDisplay:10.37,2013-03-10 21:38:00,
2013-03-10 17:43:00,61.3,30.4,30.41,ENE,68,3.5,3.5,31,0.00,CLR,,0.00,WeatherDisplay:10.37,2013-03-10 21:43:00,
2013-03-10 17:48:00,61.2,31.0,30.40,NNW,338,4.6,4.6,32,0.00,CLR,,0.00,WeatherDisplay:10.37,2013-03-10 21:48:00,
2013-03-10 17:53:00,61.0,30.1,30.40,NE,45,6.9,6.9,31,0.00,CLR,,0.00,WeatherDisplay:10.37,2013-03-10 21:53:00,
2013-03-10 17:58:00,60.8,30.7,30.40,ENE,68,5.4,5.4,32,0.00,CLR,,0.00,WeatherDisplay:10.37,2013-03-10 21:58:00,
2013-03-10 18:03:00,60.4,30.4,30.40,ENE,68,7.6,7.6,32,0.00,CLR,,0.00,WeatherDisplay:10.37,2013-03-10 22:03:00,
2013-03-10 18:08:00,59.9,29.9,30.40,East,90,6.2,6.2,32,0.00,CLR,,0.00,WeatherDisplay:10.37,2013-03-10 22:08:00,
2013-03-10 18:13:00,59.4,30.2,30.40,ESE,112,4.6,4.6,33,0.00,CLR,,0.00,WeatherDisplay:10.37,2013-03-10 22:13:00,
2013-03-10 18:18:00,59.4,30.2,30.40,SSE,158,6.2,6.2,33,0.00,CLR,,0.00,WeatherDisplay:10.37,2013-03-10 22:18:00,
2013-03-10 18:23:00,59.4,29.5,30.40,SSE,158,4.6,4.6,32,0.00,CLR,,0.00,WeatherDisplay:10.37,2013-03-10 22:23:00,
2013-03-10 18:28:00,59.2,29.3,30.40,NE,45,4.6,4.6,32,0.00,CLR,,0.00,WeatherDisplay:10.37,2013-03-10 22:28:00,
2013-03-10 18:33:00,59.0,29.9,30.40,SE,135,5.8,5.8,33,0.00,CLR,,0.00,WeatherDisplay:10.37,2013-03-10 22:33:00,
2013-03-10 18:38:00,58.6,29.6,30.40,ENE,68,5.8,5.8,33,0.00,CLR,,0.00,WeatherDisplay:10.37,2013-03-10 22:38:00,
2013-03-10 18:43:00,58.3,29.3,30.40,ESE,112,3.5,3.5,33,0.00,CLR,,0.00,WeatherDisplay:10.37,2013-03-10 22:43:00,
2013-03-10 18:48:00,57.9,29.7,30.40,East,90,2.9,2.9,34,0.00,CLR,,0.00,WeatherDisplay:10.37,2013-03-10 22:48:00,
2013-03-10 18:53:00,57.7,31.6,30.40,NE,45,3.5,3.5,37,0.00,CLR,,0.00,WeatherDisplay:10.37,2013-03-10 22:53:00,
2013-03-10 18:58:00,57.4,31.3,30.41,East,90,4.6,4.6,37,0.00,CLR,,0.00,WeatherDisplay:10.37,2013-03-10 22:58:00,
2013-03-10 19:03:00,57.0,31.0,30.41,East,90,2.3,2.3,37,0.00,CLR,,0.00,WeatherDisplay:10.37,2013-03-10 23:03:00,
2013-03-10 19:08:00,56.7,31.3,30.41,ESE,112,4.6,4.6,38,0.00,CLR,,0.00,WeatherDisplay:10.37,2013-03-10 23:08:00,
2013-03-10 19:13:00,56.3,31.6,30.41,ENE,68,2.3,2.3,39,0.00,CLR,,0.00,WeatherDisplay:10.37,2013-03-10 23:13:00,
2013-03-10 19:18:00,56.1,31.5,30.41,NNE,22,3.5,3.5,39,0.00,CLR,,0.00,WeatherDisplay:10.37,2013-03-10 23:18:00,
2013-03-10 19:23:00,55.8,31.8,30.41,ESE,112,1.1,1.1,40,0.00,CLR,,0.00,WeatherDisplay:10.37,2013-03-10 23:23:00,
2013-03-10 19:28:00,55.4,32.1,30.41,East,90,1.1,1.1,41,0.00,CLR,,0.00,WeatherDisplay:10.37,2013-03-10 23:28:00,
2013-03-10 19:33:00,55.0,31.7,30.41,East,90,3.6,3.6,41,0.00,CLR,,0.00,WeatherDisplay:10.37,2013-03-10 23:33:00,
2013-03-10 19:38:00,54.9,32.8,30.41,NE,45,2.3,2.3,43,0.00,CLR,,0.00,WeatherDisplay:10.37,2013-03-10 23:38:00,
2013-03-10 19:43:00,54.5,33.0,30.41,East,90,2.3,2.3,44,0.00,CLR,,0.00,WeatherDisplay:10.37,2013-03-10 23:43:00,
2013-03-10 19:48:00,54.3,32.8,30.41,ENE,68,0.0,0.5,44,0.00,CLR,,0.00,WeatherDisplay:10.37,2013-03-10 23:48:00,
2013-03-10 19:53:00,54.1,33.8,30.41,ENE,68,1.1,1.1,46,0.00,CLR,,0.00,WeatherDisplay:10.37,2013-03-10 23:53:00,
2013-03-10 19:58:00,54.0,33.6,30.41,East,90,0.0,0.0,46,0.00,CLR,,0.00,WeatherDisplay:10.37,2013-03-10 23:58:00,
2013-03-10 20:03:00,53.6,33.3,30.42,SE,135,0.0,0.0,46,0.00,CLR,,0.00,WeatherDisplay:10.37,2013-03-11 00:03:00,
2013-03-10 20:08:00,53.6,33.3,30.41,SE,135,0.0,0.0,46,0.00,CLR,,0.00,WeatherDisplay:10.37,2013-03-11 00:08:00,
2013-03-10 20:13:00,53.2,33.5,30.41,SE,135,0.0,0.0,47,0.00,CLR,,0.00,WeatherDisplay:10.37,2013-03-11 00:13:00,
2013-03-10 20:18:00,53.1,33.9,30.41,SE,135,0.2,0.2,48,0.00,CLR,,0.00,WeatherDisplay:10.37,2013-03-11 00:18:00,
2013-03-10 20:23:00,52.7,34.1,30.40,SE,135,0.0,0.0,49,0.00,CLR,,0.00,WeatherDisplay:10.37,2013-03-11 00:23:00,
2013-03-10 20:28:00,52.5,34.4,30.41,SE,135,0.2,0.2,50,0.00,CLR,,0.00,WeatherDisplay:10.37,2013-03-11 00:28:00,
2013-03-10 20:33:00,52.3,34.7,30.41,SE,135,0.0,0.0,51,0.00,CLR,,0.00,WeatherDisplay:10.37,2013-03-11 00:33:00,
2013-03-10 20:38:00,52.2,34.6,30.41,SE,135,1.1,1.1,51,0.00,CLR,,0.00,WeatherDisplay:10.37,2013-03-11 00:38:00,
2013-03-10 20:43:00,52.0,34.9,30.41,SE,135,0.0,0.0,52,0.00,CLR,,0.00,WeatherDisplay:10.37,2013-03-11 00:43:00,
2013-03-10 20:48:00,51.8,35.2,30.41,SE,135,0.0,0.0,53,0.00,CLR,,0.00,WeatherDisplay:10.37,2013-03-11 00:48:00,
2013-03-10 20:53:00,51.4,35.3,30.41,ESE,112,0.0,0.0,54,0.00,CLR,,0.00,WeatherDisplay:10.37,2013-03-11 00:53:00,
2013-03-10 20:58:00,51.4,35.8,30.41,ENE,68,1.1,1.1,55,0.00,CLR,,0.00,WeatherDisplay:10.37,2013-03-11 00:58:00,
2013-03-10 21:03:00,51.1,36.4,30.41,ENE,68,1.1,1.1,57,0.00,CLR,,0.00,WeatherDisplay:10.37,2013-03-11 01:03:00,
2013-03-10 21:08:00,50.9,36.6,30.41,ENE,68,0.0,0.0,58,0.00,CLR,,0.00,WeatherDisplay:10.37,2013-03-11 01:08:00,
2013-03-10 21:14:00,50.7,36.5,30.41,ENE,68,0.0,0.0,58,0.00,CLR,,0.00,WeatherDisplay:10.37,2013-03-11 01:14:00,
2013-03-10 21:19:00,50.5,36.3,30.41,SW,225,0.0,0.0,58,0.00,CLR,,0.00,WeatherDisplay:10.37,2013-03-11 01:19:00,
2013-03-10 21:24:00,50.4,36.6,30.41,SW,225,0.0,0.0,59,0.00,CLR,,0.00,WeatherDisplay:10.37,2013-03-11 01:24:00,
2013-03-10 21:29:00,50.2,36.4,30.41,SW,225,0.0,0.0,59,0.00,CLR,,0.00,WeatherDisplay:10.37,2013-03-11 01:29:00,
2013-03-10 21:34:00,50.0,36.2,30.41,SW,225,0.0,0.0,59,0.00,CLR,,0.00,WeatherDisplay:10.37,2013-03-11 01:34:00,
2013-03-10 21:39:00,50.0,36.2,30.41,SW,225,0.0,0.0,59,0.00,CLR,,0.00,WeatherDisplay:10.37,2013-03-11 01:39:00,
2013-03-10 21:44:00,49.8,36.5,30.41,WSW,248,0.0,0.0,60,0.00,CLR,,0.00,WeatherDisplay:10.37,2013-03-11 01:44:00,
2013-03-10 21:49:00,49.6,36.3,30.42,WSW,248,0.0,0.0,60,0.00,CLR,,0.00,WeatherDisplay:10.37,2013-03-11 01:49:00,
2013-03-10 21:54:00,49.5,36.6,30.42,WSW,248,0.0,0.0,61,0.00,CLR,,0.00,WeatherDisplay:10.37,2013-03-11 01:54:00,
2013-03-10 21:59:00,49.5,37.0,30.42,NW,315,0.0,0.0,62,0.00,CLR,,0.00,WeatherDisplay:10.37,2013-03-11 01:59:00,
2013-03-10 22:04:00,49.3,37.2,30.42,NW,315,0.0,0.0,63,0.00,CLR,,0.00,WeatherDisplay:10.37,2013-03-11 02:04:00,
2013-03-10 22:09:00,49.1,37.0,30.42,NW,315,0.0,0.0,63,0.00,CLR,,0.00,WeatherDisplay:10.37,2013-03-11 02:09:00,
2013-03-10 22:14:00,49.1,37.0,30.42,NW,315,0.0,0.0,63,0.00,CLR,,0.00,WeatherDisplay:10.37,2013-03-11 02:14:00,
2013-03-10 22:19:00,48.9,37.3,30.42,NW,315,0.0,0.0,64,0.00,CLR,,0.00,WeatherDisplay:10.37,2013-03-11 02:19:00,
2013-03-10 22:24:00,48.7,36.7,30.42,NW,315,0.0,0.0,63,0.00,CLR,,0.00,WeatherDisplay:10.37,2013-03-11 02:24:00,
2013-03-10 22:29:00,48.6,36.5,30.42,NW,315,0.0,0.0,63,0.00,CLR,,0.00,WeatherDisplay:10.37,2013-03-11 02:29:00,
2013-03-10 22:34:00,48.4,36.4,30.42,NW,315,0.0,0.0,63,0.00,CLR,,0.00,WeatherDisplay:10.37,2013-03-11 02:34:00,
2013-03-10 22:39:00,48.2,36.2,30.42,NW,315,0.0,0.0,63,0.00,CLR,,0.00,WeatherDisplay:10.37,2013-03-11 02:39:00,
2013-03-10 22:44:00,48.0,36.0,30.43,NW,315,1.1,1.1,63,0.00,CLR,,0.00,WeatherDisplay:10.37,2013-03-11 02:44:00,
2013-03-10 22:49:00,47.8,36.2,30.42,NW,315,0.0,0.0,64,0.00,CLR,,0.00,WeatherDisplay:10.37,2013-03-11 02:49:00,
2013-03-10 22:54:00,47.8,36.2,30.42,NW,315,0.0,0.0,64,0.00,CLR,,0.00,WeatherDisplay:10.37,2013-03-11 02:54:00,
2013-03-10 22:59:00,47.7,36.1,30.42,NW,315,0.0,0.0,64,0.00,CLR,,0.00,WeatherDisplay:10.37,2013-03-11 02:59:00,
2013-03-10 23:04:00,47.5,35.9,30.42,ENE,68,0.5,0.5,64,0.00,CLR,,0.00,WeatherDisplay:10.37,2013-03-11 03:04:00,
2013-03-10 23:09:00,47.5,36.3,30.42,ENE,68,0.0,0.0,65,0.00,CLR,,0.00,WeatherDisplay:10.37,2013-03-11 03:09:00,
2013-03-10 23:14:00,47.3,36.1,30.42,ENE,68,0.0,0.0,65,0.00,CLR,,0.00,WeatherDisplay:10.37,2013-03-11 03:14:00,
2013-03-10 23:19:00,47.3,36.1,30.42,ENE,68,0.0,0.0,65,0.00,CLR,,0.00,WeatherDisplay:10.37,2013-03-11 03:19:00,
2013-03-10 23:24:00,47.1,36.3,30.41,NE,45,1.1,1.1,66,0.00,CLR,,0.00,WeatherDisplay:10.37,2013-03-11 03:24:00,
2013-03-10 23:29:00,47.1,36.7,30.41,NNE,22,1.1,1.1,67,0.00,CLR,,0.00,WeatherDisplay:10.37,2013-03-11 03:29:00,
2013-03-10 23:34:00,47.1,37.1,30.41,NNE,22,0.0,0.0,68,0.00,CLR,,0.00,WeatherDisplay:10.37,2013-03-11 03:34:00,
2013-03-10 23:39:00,47.1,37.1,30.41,NNE,22,0.0,0.0,68,0.00,CLR,,0.00,WeatherDisplay:10.37,2013-03-11 03:39:00,
2013-03-10 23:44:00,47.1,37.1,30.41,NNE,22,0.0,0.0,68,0.00,CLR,,0.00,WeatherDisplay:10.37,2013-03-11 03:44:00,
2013-03-10 23:49:00,46.9,36.9,30.41,NNE,22,0.0,0.0,68,0.00,CLR,,0.00,WeatherDisplay:10.37,2013-03-11 03:49:00,
2013-03-10 23:54:00,46.8,36.8,30.41,NW,315,0.0,0.0,68,0.00,CLR,,0.00,WeatherDisplay:10.37,2013-03-11 03:54:00,
2013-03-10 23:59:00,46.6,36.6,30.41,NW,315,0.0,0.0,68,0.00,CLR,,0.00,WeatherDisplay:10.37,2013-03-11 03:59:00,